| time (UTC) | temp C | wind direction | speed KPH | gust KPH | rain 1hr cm | rain 24hr cm | rain mn cm | humidity % | barometer mb |
| 20260507040942 | 29 | 130 | 1.6 | 1.6 | 0.00 | 0.03 | 0.03 | 62 | 1016.4 |
| 20260507040437 | 28 | 69 | 0.0 | 1.6 | 0.00 | 0.03 | 0.03 | 63 | 1016.2 |
| 20260507035933 | 28 | 83 | 0.0 | 1.6 | 0.00 | 0.03 | 0.03 | 63 | 1016.5 |
| 20260507035430 | 29 | 84 | 0.0 | 4.8 | 0.00 | 0.03 | 0.03 | 63 | 1016.5 |
| 20260507034927 | 29 | 18 | 1.6 | 1.6 | 0.00 | 0.03 | 0.03 | 64 | 1016.8 |
| 20260507034424 | 28 | 31 | 0.0 | 3.2 | 0.00 | 0.03 | 0.03 | 63 | 1016.7 |
| 20260507033922 | 28 | 85 | 1.6 | 1.6 | 0.00 | 0.03 | 0.03 | 63 | 1016.9 |
| 20260507033419 | 27 | 145 | 1.6 | 1.6 | 0.00 | 0.03 | 0.03 | 65 | 1016.8 |
| 20260507032916 | 28 | 115 | 4.8 | 4.8 | 0.00 | 0.03 | 0.03 | 63 | 1016.9 |
| 20260507032413 | 28 | 136 | 1.6 | 1.6 | 0.00 | 0.03 | 0.03 | 65 | 1017.0 |
| 20260507031909 | 28 | 107 | 0.0 | 1.6 | 0.00 | 0.03 | 0.03 | 62 | 1016.9 |
| 20260507031406 | 28 | 132 | 1.6 | 1.6 | 0.00 | 0.03 | 0.03 | 63 | 1017.0 |
| 20260507030903 | 28 | 69 | 1.6 | 3.2 | 0.00 | 0.03 | 0.03 | 64 | 1017.4 |
| 20260507030400 | 27 | 55 | 1.6 | 1.6 | 0.00 | 0.03 | 0.03 | 63 | 1017.1 |
| 20260507025857 | 28 | 67 | 0.0 | 1.6 | 0.00 | 0.03 | 0.03 | 64 | 1017.1 |
| 20260507025354 | 28 | 72 | 1.6 | 3.2 | 0.00 | 0.03 | 0.03 | 67 | 1017.2 |
| 20260507024852 | 27 | 90 | 0.0 | 3.2 | 0.00 | 0.03 | 0.03 | 67 | 1017.2 |
| 20260507024349 | 27 | 97 | 0.0 | 3.2 | 0.00 | 0.03 | 0.03 | 67 | 1017.4 |
| 20260507023844 | 27 | 74 | 0.0 | 1.6 | 0.00 | 0.03 | 0.03 | 67 | 1017.2 |
| 20260507023342 | 26 | 88 | 0.0 | 1.6 | 0.00 | 0.03 | 0.03 | 68 | 1017.4 |
| 20260507022839 | 26 | 48 | 0.0 | 1.6 | 0.00 | 0.03 | 0.03 | 66 | 1017.4 |
| 20260507022335 | 26 | 68 | 0.0 | 1.6 | 0.00 | 0.03 | 0.03 | 69 | 1017.5 |
| 20260507021831 | 26 | 298 | 0.0 | 3.2 | 0.00 | 0.03 | 0.03 | 70 | 1017.3 |
| 20260507021327 | 26 | 287 | 0.0 | 3.2 | 0.00 | 0.03 | 0.03 | 69 | 1017.3 |
| 20260507020825 | 25 | 25 | 1.6 | 3.2 | 0.00 | 0.03 | 0.03 | 73 | 1017.6 |
| 20260507020321 | 25 | 310 | 0.0 | 6.4 | 0.00 | 0.03 | 0.03 | 76 | 1017.5 |
| 20260507015819 | 25 | 130 | 4.8 | 9.7 | 0.00 | 0.03 | 0.03 | 73 | 1017.5 |
| 20260507015316 | 25 | 131 | 4.8 | 6.4 | 0.00 | 0.03 | 0.03 | 71 | 1017.5 |
| 20260507014813 | 26 | 109 | 4.8 | 6.4 | 0.00 | 0.03 | 0.03 | 71 | 1017.4 |
| 20260507014309 | 27 | 126 | 4.8 | 9.7 | 0.00 | 0.03 | 0.03 | 68 | 1017.3 |
| 20260507013806 | 28 | 51 | 1.6 | 3.2 | 0.00 | 0.03 | 0.03 | 66 | 1017.4 |
| 20260507013303 | 28 | 69 | 0.0 | 1.6 | 0.00 | 0.03 | 0.03 | 66 | 1017.3 |
| 20260507012801 | 27 | 108 | 1.6 | 1.6 | 0.00 | 0.03 | 0.03 | 69 | 1017.5 |
| 20260507012256 | 27 | 110 | 1.6 | 1.6 | 0.00 | 0.03 | 0.03 | 68 | 1017.5 |
| 20260507011754 | 27 | 40 | 0.0 | 0.0 | 0.00 | 0.03 | 0.03 | 71 | 1017.3 |
| 20260507011250 | 27 | 105 | 0.0 | 1.6 | 0.00 | 0.03 | 0.03 | 69 | 1017.5 |
| 20260507010750 | 27 | 90 | 0.0 | 1.6 | 0.00 | 0.03 | 0.03 | 70 | 1017.5 |
| 20260507010246 | 27 | 62 | 0.0 | 1.6 | 0.00 | 0.03 | 0.03 | 72 | 1017.6 |
| 20260507005744 | 27 | 73 | 0.0 | 1.6 | 0.00 | 0.03 | 0.03 | 73 | 1017.8 |
| 20260507005240 | 26 | 106 | 1.6 | 1.6 | 0.00 | 0.03 | 0.03 | 73 | 1017.5 |
| 20260507004736 | 26 | 287 | 0.0 | 3.2 | 0.00 | 0.03 | 0.03 | 74 | 1017.6 |
| 20260507004235 | 26 | 326 | 0.0 | 1.6 | 0.00 | 0.03 | 0.03 | 74 | 1017.8 |
| 20260507003730 | 26 | 88 | 3.2 | 3.2 | 0.00 | 0.03 | 0.03 | 73 | 1018.1 |
| 20260507003226 | 26 | 300 | 1.6 | 3.2 | 0.00 | 0.03 | 0.03 | 74 | 1017.9 |
| 20260507002722 | 26 | 67 | 1.6 | 4.8 | 0.00 | 0.03 | 0.03 | 75 | 1017.9 |
| 20260507002218 | 26 | 51 | 0.0 | 1.6 | 0.00 | 0.03 | 0.03 | 75 | 1017.9 |
| 20260507001715 | 26 | 55 | 1.6 | 1.6 | 0.00 | 0.03 | 0.03 | 76 | 1018.1 |
| 20260507001212 | 26 | 44 | 1.6 | 1.6 | 0.00 | 0.03 | 0.03 | 75 | 1017.9 |
| 20260507000708 | 26 | 70 | 1.6 | 1.6 | 0.00 | 0.03 | 0.03 | 75 | 1018.0 |
| 20260507000205 | 26 | 83 | 1.6 | 3.2 | 0.00 | 0.03 | 0.03 | 75 | 1017.7 |
| 20260506235701 | 26 | 80 | 0.0 | 1.6 | 0.00 | 0.03 | 0.03 | 75 | 1017.6 |
| 20260506235157 | 26 | 95 | 0.0 | 0.0 | 0.00 | 0.03 | 0.03 | 77 | 1017.8 |
| 20260506234654 | 26 | 90 | 0.0 | 1.6 | 0.00 | 0.03 | 0.03 | 77 | 1017.6 |
| 20260506234151 | 26 | 81 | 0.0 | 0.0 | 0.00 | 0.03 | 0.03 | 75 | 1017.7 |
| 20260506233648 | 26 | 76 | 0.0 | 1.6 | 0.00 | 0.03 | 0.03 | 76 | 1017.6 |
| 20260506233145 | 26 | 69 | 0.0 | 1.6 | 0.00 | 0.03 | 0.03 | 77 | 1017.9 |
| 20260506232641 | 25 | 80 | 0.0 | 3.2 | 0.00 | 0.03 | 0.03 | 79 | 1017.7 |
| 20260506232137 | 25 | 83 | 1.6 | 3.2 | 0.00 | 0.03 | 0.03 | 78 | 1017.7 |
| 20260506231634 | 26 | 45 | 0.0 | 1.6 | 0.00 | 0.03 | 0.03 | 78 | 1017.7 |
| 20260506231132 | 26 | 86 | 0.0 | 0.0 | 0.00 | 0.03 | 0.03 | 80 | 1017.6 |
| 20260506230629 | 25 | 86 | 0.0 | 1.6 | 0.00 | 0.03 | 0.03 | 83 | 1017.8 |
| 20260506230126 | 25 | 94 | 0.0 | 0.0 | 0.00 | 0.03 | 0.03 | 85 | 1017.6 |
| 20260506225622 | 24 | 87 | 0.0 | 0.0 | 0.00 | 0.03 | 0.03 | 87 | 1017.6 |
| 20260506225119 | 24 | 91 | 0.0 | 0.0 | 0.00 | 0.03 | 0.03 | 87 | 1017.3 |
| 20260506224616 | 23 | 73 | 0.0 | 0.0 | 0.00 | 0.03 | 0.03 | 91 | 1017.2 |
| 20260506224112 | 22 | 102 | 0.0 | 0.0 | 0.00 | 0.03 | 0.03 | 93 | 1017.2 |
| 20260506223608 | 22 | 95 | 0.0 | 0.0 | 0.00 | 0.03 | 0.03 | 92 | 1017.0 |
| 20260506223105 | 22 | 89 | 0.0 | 0.0 | 0.00 | 0.03 | 0.03 | 94 | 1017.0 |
| 20260506222602 | 21 | 94 | 0.0 | 0.0 | 0.00 | 0.03 | 0.03 | 94 | 1017.0 |
| 20260506222058 | 21 | 89 | 0.0 | 1.6 | 0.00 | 0.03 | 0.03 | 94 | 1016.9 |
| 20260506221556 | 22 | 84 | 0.0 | 0.0 | 0.00 | 0.03 | 0.03 | 95 | 1016.7 |
| 20260506221054 | 21 | 83 | 0.0 | 0.0 | 0.00 | 0.03 | 0.03 | 96 | 1016.8 |
| 20260506220549 | 21 | 89 | 0.0 | 0.0 | 0.00 | 0.03 | 0.03 | 96 | 1017.2 |
| 20260506220045 | 21 | 88 | 0.0 | 0.0 | 0.00 | 0.03 | 0.03 | 97 | 1017.0 |
| 20260506215542 | 21 | 86 | 0.0 | 0.0 | 0.00 | 0.03 | 0.03 | 97 | 1016.8 |
| 20260506215038 | 21 | 86 | 0.0 | 0.0 | 0.00 | 0.03 | 0.03 | 97 | 1017.0 |
| 20260506214535 | 21 | 89 | 0.0 | 0.0 | 0.00 | 0.03 | 0.03 | 96 | 1017.0 |
| 20260506214032 | 20 | 90 | 0.0 | 0.0 | 0.00 | 0.03 | 0.03 | 97 | 1016.9 |
| 20260506213530 | 19 | 91 | 0.0 | 0.0 | 0.00 | 0.03 | 0.03 | 97 | 1016.8 |
| 20260506213027 | 18 | 88 | 0.0 | 0.0 | 0.00 | 0.03 | 0.03 | 97 | 1016.5 |
| 20260506212523 | 18 | 95 | 0.0 | 0.0 | 0.00 | 0.03 | 0.03 | 97 | 1016.6 |
| 20260506212019 | 18 | 95 | 0.0 | 0.0 | 0.00 | 0.03 | 0.03 | 97 | 1016.4 |
| 20260506211514 | 17 | 79 | 0.0 | 0.0 | 0.00 | 0.03 | 0.03 | 97 | 1016.3 |
| 20260506211012 | 17 | 90 | 0.0 | 0.0 | 0.00 | 0.03 | 0.03 | 97 | 1016.5 |
| 20260506210508 | 17 | 97 | 0.0 | 0.0 | 0.00 | 0.03 | 0.03 | 97 | 1016.3 |
| 20260506210005 | 17 | 95 | 0.0 | 0.0 | 0.00 | 0.03 | 0.03 | 97 | 1016.2 |
| 20260506205502 | 17 | 92 | 0.0 | 0.0 | 0.00 | 0.03 | 0.03 | 97 | 1016.1 |
| 20260506204957 | 17 | 92 | 0.0 | 0.0 | 0.00 | 0.03 | 0.03 | 97 | 1016.0 |
| 20260506204455 | 17 | 89 | 0.0 | 0.0 | 0.00 | 0.03 | 0.03 | 97 | 1016.1 |
| 20260506203947 | 17 | 91 | 0.0 | 0.0 | 0.00 | 0.03 | 0.03 | 96 | 1016.1 |
| 20260506203444 | 18 | 97 | 0.0 | 0.0 | 0.00 | 0.03 | 0.03 | 97 | 1016.1 |
| 20260506202941 | 17 | 92 | 0.0 | 0.0 | 0.00 | 0.03 | 0.03 | 97 | 1015.8 |
| 20260506202439 | 17 | 96 | 0.0 | 0.0 | 0.00 | 0.03 | 0.03 | 96 | 1015.7 |
| 20260506201935 | 17 | 95 | 0.0 | 0.0 | 0.00 | 0.03 | 0.03 | 96 | 1015.9 |
| 20260506201433 | 17 | 80 | 0.0 | 0.0 | 0.00 | 0.03 | 0.03 | 96 | 1015.8 |
| 20260506200929 | 17 | 101 | 0.0 | 0.0 | 0.00 | 0.03 | 0.03 | 96 | 1016.1 |
| 20260506200425 | 17 | 95 | 0.0 | 0.0 | 0.00 | 0.03 | 0.03 | 96 | 1016.0 |
| 20260506195922 | 17 | 93 | 0.0 | 0.0 | 0.00 | 0.03 | 0.03 | 96 | 1016.0 |
| 20260506195419 | 17 | 93 | 0.0 | 0.0 | 0.00 | 0.03 | 0.03 | 96 | 1015.9 |
| 20260506194915 | 17 | 96 | 0.0 | 0.0 | 0.00 | 0.03 | 0.03 | 96 | 1016.1 |
| 20260506194412 | 17 | 94 | 0.0 | 0.0 | 0.00 | 0.03 | 0.03 | 96 | 1016.0 |
| 20260506193909 | 17 | 100 | 0.0 | 0.0 | 0.00 | 0.03 | 0.03 | 96 | 1015.9 |
| 20260506193406 | 17 | 90 | 0.0 | 0.0 | 0.00 | 0.03 | 0.03 | 96 | 1016.0 |
| 20260506192902 | 17 | 91 | 0.0 | 0.0 | 0.00 | 0.03 | 0.03 | 96 | 1016.0 |
| 20260506192359 | 17 | 94 | 0.0 | 0.0 | 0.00 | 0.03 | 0.03 | 96 | 1015.9 |
| 20260506191856 | 17 | 95 | 0.0 | 0.0 | 0.00 | 0.03 | 0.03 | 96 | 1016.0 |
| 20260506191353 | 17 | 89 | 0.0 | 0.0 | 0.00 | 0.03 | 0.03 | 96 | 1015.9 |
| 20260506190850 | 17 | 93 | 0.0 | 0.0 | 0.00 | 0.03 | 0.03 | 96 | 1015.9 |
| 20260506190346 | 17 | 94 | 0.0 | 0.0 | 0.00 | 0.03 | 0.03 | 96 | 1016.1 |
| 20260506185843 | 17 | 100 | 0.0 | 0.0 | 0.00 | 0.03 | 0.03 | 96 | 1016.0 |
| 20260506185340 | 18 | 100 | 0.0 | 0.0 | 0.00 | 0.03 | 0.03 | 96 | 1015.9 |
| 20260506184836 | 18 | 87 | 0.0 | 0.0 | 0.00 | 0.03 | 0.03 | 96 | 1016.0 |
| 20260506184334 | 18 | 95 | 0.0 | 0.0 | 0.00 | 0.03 | 0.03 | 96 | 1016.0 |
| 20260506183831 | 18 | 92 | 0.0 | 0.0 | 0.00 | 0.03 | 0.03 | 96 | 1016.0 |
| 20260506183326 | 18 | 88 | 0.0 | 0.0 | 0.00 | 0.03 | 0.03 | 96 | 1016.2 |
| 20260506182824 | 18 | 93 | 0.0 | 0.0 | 0.00 | 0.03 | 0.03 | 96 | 1016.0 |
| 20260506182321 | 18 | 100 | 0.0 | 0.0 | 0.00 | 0.03 | 0.03 | 96 | 1016.2 |
| 20260506181819 | 18 | 89 | 0.0 | 0.0 | 0.00 | 0.03 | 0.03 | 96 | 1016.1 |
| 20260506181316 | 18 | 82 | 0.0 | 0.0 | 0.00 | 0.03 | 0.03 | 96 | 1016.3 |
| 20260506180813 | 18 | 86 | 0.0 | 0.0 | 0.13 | 0.03 | 0.03 | 95 | 1016.6 |
| 20260506180309 | 18 | 79 | 0.0 | 0.0 | 0.00 | 0.00 | 0.00 | 95 | 1016.6 |
| 20260506175806 | 18 | 95 | 0.0 | 0.0 | 0.00 | 0.00 | 0.00 | 95 | 1016.6 |
| 20260506175305 | 18 | 99 | 0.0 | 0.0 | 0.00 | 0.00 | 0.00 | 95 | 1016.4 |
| 20260506174800 | 18 | 103 | 0.0 | 0.0 | 0.00 | 0.00 | 0.00 | 95 | 1016.5 |
| 20260506174257 | 18 | 84 | 0.0 | 0.0 | 0.00 | 0.00 | 0.00 | 95 | 1016.5 |
| 20260506173754 | 18 | 83 | 0.0 | 0.0 | 0.00 | 0.00 | 0.00 | 95 | 1016.7 |
| 20260506173251 | 18 | 96 | 0.0 | 0.0 | 0.00 | 0.00 | 0.00 | 95 | 1016.6 |
| 20260506172748 | 18 | 87 | 0.0 | 0.0 | 0.00 | 0.00 | 0.00 | 95 | 1016.7 |
| 20260506172244 | 18 | 59 | 0.0 | 0.0 | 0.00 | 0.00 | 0.00 | 95 | 1016.6 |
| 20260506171742 | 18 | 95 | 0.0 | 0.0 | 0.00 | 0.00 | 0.00 | 95 | 1016.7 |
| 20260506171239 | 18 | 98 | 0.0 | 0.0 | 0.00 | 0.00 | 0.00 | 95 | 1016.7 |
| 20260506170737 | 18 | 97 | 0.0 | 0.0 | 0.00 | 0.00 | 0.00 | 95 | 1016.7 |
| 20260506170233 | 18 | 108 | 0.0 | 0.0 | 0.00 | 0.00 | 0.00 | 95 | 1016.9 |
| 20260506165732 | 18 | 98 | 0.0 | 0.0 | 0.00 | 0.00 | 0.00 | 94 | 1016.8 |
| 20260506165228 | 18 | 99 | 0.0 | 0.0 | 0.00 | 0.00 | 0.00 | 94 | 1017.1 |
| 20260506164726 | 18 | 85 | 0.0 | 0.0 | 0.00 | 0.00 | 0.00 | 94 | 1017.0 |
| 20260506164222 | 18 | 93 | 0.0 | 0.0 | 0.00 | 0.00 | 0.00 | 94 | 1017.2 |
| 20260506163719 | 18 | 108 | 0.0 | 0.0 | 0.00 | 0.00 | 0.00 | 94 | 1017.1 |
| 20260506163214 | 18 | 92 | 0.0 | 0.0 | 0.00 | 0.00 | 0.00 | 94 | 1017.2 |
| 20260506162710 | 18 | 77 | 0.0 | 0.0 | 0.00 | 0.00 | 0.00 | 94 | 1017.2 |
| 20260506162208 | 18 | 84 | 0.0 | 1.6 | 0.00 | 0.00 | 0.00 | 94 | 1017.3 |
| 20260506161705 | 18 | 81 | 0.0 | 0.0 | 0.00 | 0.00 | 0.00 | 94 | 1017.4 |
| 20260506161202 | 18 | 92 | 0.0 | 0.0 | 0.00 | 0.00 | 0.00 | 94 | 1017.5 |
| 20260506160700 | 18 | 96 | 0.0 | 0.0 | 0.00 | 0.00 | 0.00 | 93 | 1017.3 |
| 20260506160156 | 18 | 96 | 0.0 | 0.0 | 0.00 | 0.00 | 0.00 | 93 | 1017.4 |
| 20260506155655 | 18 | 93 | 0.0 | 0.0 | 0.00 | 0.00 | 0.00 | 93 | 1017.3 |
| 20260506155151 | 19 | 100 | 0.0 | 0.0 | 0.00 | 0.00 | 0.00 | 93 | 1017.6 |
| 20260506153253 | 19 | 97 | 0.0 | 0.0 | 0.00 | 0.00 | 0.00 | 92 | 1017.6 |
| 20260506152750 | 19 | 91 | 0.0 | 0.0 | 0.00 | 0.00 | 0.00 | 92 | 1017.8 |
| 20260506152248 | 20 | 62 | 0.0 | 1.6 | 0.00 | 0.00 | 0.00 | 92 | 1017.8 |
| 20260506151747 | 20 | 68 | 0.0 | 1.6 | 0.00 | 0.00 | 0.00 | 92 | 1017.7 |
| 20260506151243 | 20 | 106 | 0.0 | 0.0 | 0.00 | 0.00 | 0.00 | 92 | 1018.0 |
| 20260506150739 | 20 | 93 | 0.0 | 0.0 | 0.00 | 0.00 | 0.00 | 91 | 1017.9 |
| 20260506150237 | 20 | 81 | 0.0 | 1.6 | 0.00 | 0.00 | 0.00 | 91 | 1018.0 |
| 20260506145733 | 20 | 43 | 0.0 | 1.6 | 0.00 | 3.61 | 3.61 | 91 | 1017.9 |
| 20260506145230 | 20 | 81 | 0.0 | 1.6 | 0.00 | 3.61 | 3.61 | 91 | 1018.0 |
| 20260506144727 | 20 | 5 | 1.6 | 4.8 | 0.00 | 3.61 | 3.61 | 91 | 1017.8 |
| 20260506144224 | 20 | 338 | 1.6 | 4.8 | 0.00 | 3.61 | 3.61 | 91 | 1018.1 |
| 20260506143722 | 20 | 96 | 4.8 | 9.7 | 0.00 | 3.61 | 3.61 | 92 | 1017.9 |
| 20260506143219 | 20 | 56 | 1.6 | 6.4 | 0.00 | 3.61 | 3.61 | 92 | 1018.0 |
| 20260506142718 | 20 | 31 | 1.6 | 4.8 | 0.00 | 3.61 | 3.61 | 92 | 1017.9 |
| 20260506142215 | 20 | 359 | 3.2 | 4.8 | 0.00 | 3.61 | 3.61 | 92 | 1018.1 |
| 20260506141713 | 20 | 52 | 3.2 | 6.4 | 0.00 | 3.61 | 3.61 | 92 | 1018.0 |
| 20260506141211 | 20 | 87 | 0.0 | 1.6 | 0.00 | 3.61 | 3.61 | 92 | 1018.0 |
| 20260506140709 | 20 | 78 | 0.0 | 1.6 | 0.00 | 3.61 | 3.61 | 92 | 1018.0 |
| 20260506140205 | 20 | 82 | 0.0 | 1.6 | 0.00 | 3.61 | 3.61 | 92 | 1017.9 |
| 20260506135702 | 20 | 108 | 0.0 | 1.6 | 0.00 | 3.61 | 3.61 | 92 | 1017.9 |
| 20260506135158 | 20 | 72 | 0.0 | 3.2 | 0.00 | 3.61 | 3.61 | 92 | 1017.9 |
| 20260506134655 | 20 | 64 | 1.6 | 1.6 | 0.00 | 3.61 | 3.61 | 92 | 1017.8 |
| 20260506134151 | 20 | 45 | 0.0 | 1.6 | 0.00 | 3.61 | 3.61 | 92 | 1017.8 |
| 20260506133648 | 20 | 55 | 1.6 | 1.6 | 0.00 | 3.61 | 3.61 | 92 | 1018.0 |
| 20260506133145 | 20 | 80 | 0.0 | 1.6 | 0.00 | 3.61 | 3.61 | 92 | 1018.0 |
| 20260506132643 | 20 | 67 | 0.0 | 0.0 | 0.00 | 3.61 | 3.61 | 92 | 1018.1 |
| 20260506132139 | 20 | 353 | 3.2 | 3.2 | 0.00 | 3.61 | 3.61 | 92 | 1018.1 |
| 20260506131637 | 20 | 67 | 0.0 | 1.6 | 0.00 | 3.61 | 3.61 | 92 | 1018.1 |
| 20260506131133 | 20 | 66 | 0.0 | 3.2 | 0.00 | 3.61 | 3.61 | 93 | 1018.0 |
| 20260506130630 | 20 | 58 | 1.6 | 3.2 | 0.00 | 3.61 | 3.61 | 93 | 1018.3 |
| 20260506130127 | 19 | 70 | 1.6 | 3.2 | 0.00 | 3.61 | 3.61 | 93 | 1018.2 |
| 20260506125625 | 19 | 66 | 0.0 | 1.6 | 0.00 | 3.61 | 3.61 | 94 | 1018.4 |
| 20260506125123 | 19 | 64 | 0.0 | 1.6 | 0.00 | 3.61 | 3.61 | 94 | 1018.3 |
| 20260506124621 | 18 | 64 | 1.6 | 1.6 | 0.00 | 3.61 | 3.61 | 94 | 1018.3 |
| 20260506124118 | 18 | 93 | 0.0 | 0.0 | 0.00 | 3.61 | 3.61 | 94 | 1018.3 |
| 20260506123616 | 18 | 91 | 0.0 | 0.0 | 0.00 | 3.61 | 3.61 | 94 | 1018.3 |
| 20260506123114 | 19 | 96 | 0.0 | 0.0 | 0.00 | 3.61 | 3.61 | 93 | 1018.1 |
| 20260506122610 | 19 | 76 | 0.0 | 1.6 | 0.00 | 3.61 | 3.61 | 93 | 1018.1 |
| 20260506122108 | 19 | 102 | 0.0 | 0.0 | 0.00 | 3.61 | 3.61 | 93 | 1018.1 |
| 20260506121606 | 19 | 94 | 0.0 | 1.6 | 0.00 | 3.61 | 3.61 | 93 | 1018.1 |
| 20260506121102 | 19 | 100 | 0.0 | 0.0 | 0.00 | 3.61 | 3.61 | 93 | 1018.0 |
| 20260506120600 | 19 | 96 | 0.0 | 0.0 | 0.00 | 3.61 | 3.61 | 93 | 1017.9 |
| 20260506120057 | 19 | 99 | 0.0 | 0.0 | 0.00 | 3.61 | 3.61 | 93 | 1017.5 |
| 20260506115555 | 19 | 58 | 1.6 | 3.2 | 0.00 | 3.61 | 3.61 | 93 | 1017.5 |
| 20260506115053 | 19 | 80 | 0.0 | 1.6 | 0.00 | 3.61 | 3.61 | 93 | 1017.3 |
| 20260506114550 | 19 | 92 | 0.0 | 0.0 | 0.00 | 3.61 | 3.61 | 93 | 1017.2 |
| 20260506114048 | 19 | 95 | 0.0 | 0.0 | 0.00 | 3.61 | 3.61 | 93 | 1017.1 |
| 20260506113546 | 19 | 99 | 0.0 | 0.0 | 0.00 | 3.61 | 3.61 | 92 | 1016.7 |
| 20260506113043 | 19 | 92 | 0.0 | 0.0 | 0.00 | 3.61 | 3.61 | 92 | 1016.9 |
| 20260506112539 | 19 | 84 | 0.0 | 0.0 | 0.00 | 3.61 | 3.61 | 92 | 1016.8 |
| 20260506112037 | 19 | 91 | 0.0 | 0.0 | 0.00 | 3.61 | 3.61 | 92 | 1016.8 |
| 20260506111535 | 19 | 96 | 0.0 | 0.0 | 0.00 | 3.61 | 3.61 | 91 | 1016.9 |
| 20260506111032 | 19 | 79 | 0.0 | 0.0 | 0.00 | 3.61 | 3.61 | 91 | 1016.7 |
| 20260506110530 | 19 | 76 | 0.0 | 1.6 | 0.00 | 3.61 | 3.61 | 91 | 1016.6 |
| 20260506110027 | 20 | 77 | 0.0 | 1.6 | 0.00 | 3.61 | 3.61 | 91 | 1016.4 |
| 20260506105522 | 20 | 102 | 0.0 | 1.6 | 0.00 | 3.61 | 3.61 | 90 | 1016.2 |
| 20260506105020 | 20 | 94 | 0.0 | 0.0 | 0.00 | 3.61 | 3.61 | 90 | 1016.4 |
| 20260506104518 | 20 | 94 | 0.0 | 0.0 | 0.00 | 3.61 | 3.61 | 90 | 1016.4 |
| 20260506104016 | 20 | 77 | 0.0 | 0.0 | 0.00 | 3.61 | 3.61 | 89 | 1016.3 |
| 20260506103513 | 20 | 87 | 0.0 | 0.0 | 0.00 | 3.61 | 3.61 | 88 | 1016.3 |
| 20260506103009 | 20 | 59 | 0.0 | 0.0 | 0.00 | 3.61 | 3.61 | 88 | 1016.4 |
| 20260506102508 | 20 | 89 | 0.0 | 0.0 | 0.00 | 3.61 | 3.61 | 87 | 1016.4 |
| 20260506102005 | 20 | 94 | 0.0 | 0.0 | 0.00 | 3.61 | 3.61 | 87 | 1016.2 |
| 20260506101501 | 20 | 74 | 0.0 | 0.0 | 0.00 | 3.61 | 3.61 | 86 | 1016.3 |
| 20260506100958 | 21 | 89 | 0.0 | 0.0 | 0.00 | 3.61 | 3.61 | 86 | 1016.2 |
| 20260506100457 | 21 | 51 | 0.0 | 1.6 | 0.00 | 3.61 | 3.61 | 85 | 1016.3 |
| 20260506095954 | 21 | 70 | 0.0 | 1.6 | 0.00 | 3.61 | 3.61 | 85 | 1016.4 |
| 20260506095453 | 21 | 123 | 3.2 | 3.2 | 0.00 | 3.61 | 3.61 | 84 | 1016.5 |
| 20260506094948 | 21 | 88 | 3.2 | 3.2 | 0.00 | 3.61 | 3.61 | 83 | 1016.9 |
| 20260506094447 | 21 | 94 | 0.0 | 1.6 | 0.00 | 3.61 | 3.61 | 82 | 1016.7 |
| 20260506093944 | 21 | 78 | 1.6 | 4.8 | 0.00 | 3.61 | 3.61 | 81 | 1016.6 |
| 20260506093442 | 21 | 98 | 1.6 | 1.6 | 0.00 | 3.61 | 3.61 | 81 | 1016.0 |
| 20260506092940 | 21 | 116 | 1.6 | 3.2 | 0.00 | 3.61 | 3.61 | 81 | 1015.8 |
| 20260506092437 | 21 | 123 | 0.0 | 3.2 | 0.00 | 3.61 | 3.61 | 81 | 1016.0 |
| 20260506091934 | 21 | 64 | 0.0 | 6.4 | 0.00 | 3.61 | 3.61 | 81 | 1015.5 |
| 20260506091432 | 21 | 100 | 3.2 | 4.8 | 0.00 | 3.61 | 3.61 | 82 | 1015.4 |
| 20260506090929 | 21 | 5 | 1.6 | 4.8 | 0.00 | 3.61 | 3.61 | 84 | 1015.3 |
| 20260506090427 | 21 | 63 | 3.2 | 4.8 | 0.00 | 3.61 | 3.61 | 85 | 1015.6 |
| 20260506085923 | 21 | 72 | 1.6 | 3.2 | 0.00 | 3.61 | 3.61 | 86 | 1015.9 |
| 20260506085420 | 21 | 72 | 1.6 | 3.2 | 0.00 | 3.61 | 3.61 | 86 | 1016.3 |
| 20260506084916 | 21 | 55 | 1.6 | 3.2 | 0.00 | 3.61 | 3.61 | 86 | 1016.4 |
| 20260506084413 | 21 | 53 | 3.2 | 4.8 | 0.00 | 3.61 | 3.61 | 86 | 1016.4 |
| 20260506083909 | 21 | 85 | 1.6 | 4.8 | 0.00 | 3.61 | 3.61 | 86 | 1016.8 |
| 20260506083407 | 21 | 124 | 1.6 | 3.2 | 0.00 | 3.61 | 3.61 | 86 | 1016.4 |
| 20260506082904 | 21 | 89 | 1.6 | 4.8 | 0.00 | 3.61 | 3.61 | 86 | 1016.1 |
| 20260506082401 | 21 | 51 | 0.0 | 4.8 | 0.00 | 3.61 | 3.61 | 85 | 1016.1 |
| 20260506081856 | 21 | 77 | 3.2 | 6.4 | 0.18 | 3.61 | 3.61 | 84 | 1016.5 |
| 20260506081355 | 21 | 87 | 1.6 | 6.4 | 0.00 | 3.58 | 3.58 | 84 | 1016.7 |
| 20260506080852 | 21 | 72 | 6.4 | 9.7 | 0.00 | 3.58 | 3.58 | 85 | 1016.3 |
| 20260506080349 | 21 | 102 | 1.6 | 9.7 | 0.13 | 3.58 | 3.58 | 85 | 1016.3 |
| 20260506073333 | 22 | 86 | 3.2 | 9.7 | 0.00 | 3.56 | 3.56 | 91 | 1016.0 |
| 20260506072830 | 22 | 90 | 1.6 | 3.2 | 0.00 | 3.56 | 3.56 | 92 | 1015.6 |
| 20260506072327 | 22 | 84 | 4.8 | 6.4 | 0.00 | 3.56 | 3.56 | 92 | 1015.7 |
| 20260506071825 | 21 | 98 | 1.6 | 6.4 | 0.00 | 3.56 | 3.56 | 92 | 1015.8 |
| 20260506071323 | 21 | 83 | 1.6 | 14.5 | 0.00 | 3.56 | 3.56 | 92 | 1015.4 |
| 20260506070819 | 21 | 116 | 4.8 | 9.7 | 0.00 | 3.56 | 3.56 | 93 | 1015.5 |
| 20260506070316 | 21 | 75 | 4.8 | 9.7 | 0.00 | 3.56 | 3.56 | 94 | 1016.0 |
| 20260506062253 | 21 | 39 | 8.0 | 11.3 | 0.79 | 3.53 | 3.53 | 95 | 1017.4 |
| 20260506061749 | 22 | 33 | 3.2 | 3.2 | 0.48 | 3.45 | 3.45 | 94 | 1018.0 |
| 20260506061247 | 22 | 43 | 1.6 | 3.2 | 0.30 | 3.40 | 3.40 | 95 | 1018.0 |
| 20260506060745 | 21 | 76 | 0.0 | 1.6 | 0.18 | 3.38 | 3.38 | 95 | 1018.2 |
| 20260506060242 | 21 | 89 | 0.0 | 0.0 | 0.00 | 3.35 | 3.35 | 95 | 1018.3 |
| 20260506051209 | 22 | 77 | 0.0 | 6.4 | 0.13 | 3.30 | 3.30 | 95 | 1017.7 |
| 20260506050707 | 22 | 62 | 3.2 | 6.4 | 0.00 | 3.28 | 3.28 | 94 | 1017.7 |
| 20260506050204 | 22 | 87 | 1.6 | 4.8 | 0.00 | 3.28 | 3.28 | 95 | 1017.9 |
| 20260506044654 | 22 | 81 | 3.2 | 3.2 | 0.00 | 3.28 | 3.28 | 95 | 1017.9 |
| 20260506044151 | 22 | 92 | 0.0 | 4.8 | 0.00 | 3.28 | 3.28 | 95 | 1017.5 |
| 20260506043648 | 21 | 80 | 1.6 | 3.2 | 0.00 | 3.28 | 3.28 | 95 | 1017.9 |
| 20260506043146 | 21 | 313 | 3.2 | 9.7 | 0.00 | 3.28 | 3.28 | 95 | 1017.8 |
| 20260506042645 | 22 | 62 | 1.6 | 3.2 | 0.00 | 3.28 | 3.28 | 95 | 1018.0 |
| 20260506042142 | 21 | 42 | 1.6 | 3.2 | 0.00 | 3.28 | 3.28 | 96 | 1018.0 |
| 20260506041641 | 21 | 70 | 1.6 | 3.2 | 0.79 | 3.28 | 3.28 | 95 | 1018.2 |